Voltar ao catálogo

HJS-7C

AtivoCiênciaLEO
NORAD 65619·PAYLOAD·🇨🇳 China

Lançado Sep 16, 2025 de Jiuquan Satellite Launch Center

Loading…

Próximas Passagens (próximas 24 horas)

TLE

AtualizadoSource: Space-Track

Época: Sep 14, 2026, 09:28 UTC

1 65619U 25209C   26257.39512737 -.00000080  00000-0  85614-4 0  9991
2 65619  50.0012  31.7704 0002056  60.8846 299.2238 13.41474444 49615

Acompanhe HJS-7C em tempo real com AllMySat

Download on the App Store